FW1194 Weather Reports


time (UTC)temp
F
wind
direction
speed
knots
gust
knots
rain 1hr
in
rain 24hr
in
rain mn
in
humidity
%
barometer
mb
20260504160216 72 0 7.0 9.6 0.00 0.00 0.00 41 1001.1
20260504150236 68 0 8.7 12.2 0.00 0.00 0.00 45 1001.7
20260504141216 64 0 7.8 13.9 0.00 0.00 0.00 54 1002.4
20260504140216 62 0 5.2 7.0 0.00 0.00 0.00 57 1002.4
20260504130216 56 0 4.3 5.2 0.00 0.00 0.00 70 1003.0
20260504120216 50 0 3.5 4.3 0.00 0.00 0.00 80 1002.9
20260504110238 47 225 1.7 1.7 0.00 0.00 0.00 81 1002.8
20260504100218 47 180 2.6 5.2 0.00 0.00 0.00 80 1003.0
20260504081218 49 225 0.9 1.7 0.00 0.00 0.00 75 1002.8
20260504080218 49 225 1.7 2.6 0.00 0.00 0.00 74 1002.8
20260504070217 52 225 1.7 2.6 0.00 0.00 0.00 70 1003.7
20260504060217 55 248 2.6 3.5 0.00 0.00 0.00 67 1004.3
20260504050217 56 0 3.5 5.2 0.00 0.00 0.00 65 1004.5
20260504045236 56 248 3.5 4.3 0.00 0.00 0.00 64 1004.5
20260504044215 57 0 3.5 5.2 0.00 0.00 0.00 63 1004.5
20260504043215 57 180 5.2 11.3 0.00 0.00 0.00 63 1004.4
20260504042236 57 180 4.3 7.8 0.00 0.00 0.00 62 1004.5
20260504041236 58 0 2.6 4.3 0.00 0.00 0.00 61 1004.4
20260504040218 58 203 3.5 5.2 0.00 0.00 0.00 60 1004.4
20260504035237 58 225 2.6 5.2 0.00 0.00 0.00 60 1004.4
20260504034218 59 203 2.6 4.3 0.00 0.00 0.00 59 1004.6
20260504033217 59 203 3.5 6.1 0.00 0.00 0.00 59 1004.8
20260504032218 59 203 3.5 5.2 0.00 0.00 0.00 59 1004.8
20260504031218 59 180 2.6 4.3 0.00 0.00 0.00 59 1004.9
20260504030218 59 0 2.6 4.3 0.00 0.00 0.00 59 1004.9
20260504025217 59 0 2.6 3.5 0.00 0.00 0.00 59 1005.0
20260504024217 59 0 2.6 3.5 0.00 0.00 0.00 59 1005.0
20260504023217 60 203 2.6 3.5 0.00 0.00 0.00 59 1005.0
20260504022217 60 180 2.6 5.2 0.00 0.00 0.00 58 1005.0
20260504021218 61 0 3.5 4.3 0.00 0.00 0.00 57 1004.9
20260504020217 61 203 1.7 2.6 0.00 0.00 0.00 55 1004.8
20260504015217 62 0 3.5 5.2 0.00 0.00 0.00 54 1004.6
20260504014217 62 225 1.7 3.5 0.00 0.00 0.00 53 1004.6
20260504013218 62 203 3.5 6.1 0.00 0.00 0.00 52 1004.4
20260504012217 63 225 3.5 7.0 0.00 0.00 0.00 51 1004.5
20260504011238 64 203 4.3 7.8 0.00 0.00 0.00 50 1004.4
20260504010217 64 203 2.6 3.5 0.00 0.00 0.00 49 1004.3
20260504005218 65 203 3.5 4.3 0.00 0.00 0.00 48 1004.3
20260504004238 66 0 4.3 7.0 0.00 0.00 0.00 47 1004.4
20260504003217 67 225 5.2 7.8 0.00 0.00 0.00 46 1004.4
20260504002217 67 0 5.2 8.7 0.00 0.00 0.00 44 1004.4
20260504001217 68 248 7.0 9.6 0.00 0.00 0.00 43 1004.5
20260504000219 68 225 6.1 9.6 0.00 0.00 0.00 43 1004.4
20260503235237 69 248 8.7 13.0 0.00 0.00 0.00 42 1004.4
20260503234218 69 0 8.7 13.0 0.00 0.00 0.00 41 1004.4
20260503233217 69 248 7.0 11.3 0.00 0.00 0.00 41 1004.4
20260503232218 69 0 8.7 11.3 0.00 0.00 0.00 40 1004.5
20260503231217 69 225 14.8 20.0 0.00 0.00 0.00 40 1004.6
20260503230257 69 0 11.3 15.6 0.00 0.00 0.00 40 1004.6
20260503225217 69 0 10.4 17.4 0.00 0.00 0.00 41 1004.7
20260503224217 69 0 7.0 12.2 0.00 0.00 0.00 41 1004.8
20260503223217 68 0 11.3 16.5 0.00 0.00 0.00 40 1004.8
20260503222217 69 225 9.6 13.0 0.00 0.00 0.00 39 1004.9
20260503221217 69 225 8.7 14.8 0.00 0.00 0.00 40 1004.9
20260503220217 69 180 9.6 13.9 0.00 0.00 0.00 40 1005.0
20260503215217 68 225 6.1 8.7 0.00 0.00 0.00 40 1005.2
20260503214217 68 0 9.6 14.8 0.00 0.00 0.00 40 1005.3
20260503213217 68 0 8.7 12.2 0.00 0.00 0.00 40 1005.4
20260503212217 68 0 10.4 15.6 0.00 0.00 0.00 40 1005.7
20260503211217 67 225 14.8 23.5 0.00 0.00 0.00 40 1005.8
20260503210217 67 203 14.8 23.5 0.00 0.00 0.00 40 1006.0
20260503205237 66 203 13.0 20.0 0.00 0.00 0.00 39 1006.2
20260503204237 67 225 10.4 15.6 0.00 0.00 0.00 39 1006.3
20260503203217 66 225 10.4 18.2 0.00 0.00 0.00 40 1006.6
20260503202217 64 180 10.4 14.8 0.00 0.00 0.00 41 1006.9
20260503201237 65 203 13.9 21.7 0.00 0.00 0.00 41 1006.9
20260503200217 65 180 10.4 14.8 0.00 0.00 0.00 41 1007.1
20260503195217 65 203 13.0 23.5 0.00 0.00 0.00 42 1007.3
20260503194216 64 203 11.3 18.2 0.00 0.00 0.00 46 1007.5
20260503193217 63 203 7.8 16.5 0.00 0.00 0.00 48 1007.6
20260503192237 63 203 7.8 14.8 0.00 0.00 0.00 50 1007.5
20260503191216 62 203 13.0 19.1 0.00 0.00 0.00 51 1007.7
20260503190217 61 158 10.4 16.5 0.00 0.00 0.00 51 1007.6
20260503185217 61 180 8.7 16.5 0.00 0.00 0.00 52 1008.0
20260503184217 60 180 10.4 17.4 0.00 0.00 0.00 54 1008.2
20260503183217 59 180 8.7 16.5 0.00 0.00 0.00 54 1008.3
20260503182217 58 180 6.1 13.0 0.00 0.00 0.00 55 1008.4
20260503181237 57 203 9.6 14.8 0.00 0.00 0.00 56 1008.7
20260503180216 56 203 9.6 14.8 0.00 0.00 0.00 59 1008.9
20260503175237 55 180 7.0 9.6 0.00 0.00 0.00 63 1008.9
20260503174217 54 180 7.0 11.3 0.00 0.00 0.00 64 1009.5
20260503173217 55 180 8.7 15.6 0.00 0.00 0.00 64 1009.9
20260503172217 55 180 6.1 13.9 0.00 0.00 0.00 67 1010.3
20260503171217 54 180 5.2 7.8 0.00 0.00 0.00 67 1010.8
20260503170217 53 180 7.8 12.2 0.00 0.00 0.00 67 1011.0